Temp
1 0 -0 -1 -2 -2 -2 -2 -2 -2 -2 -2 -3 -3 -3 -2 -1 0 1 1 1 2
-1 -2 -2 -3 -3 -3 -3 -3 -3 -3 -3 -3 -3 -4 -4 -4 -3 -2 -1 -0 1 1
-2 -3 -3 -4 -4 -5 -5 -4 -4 -4 -4 -4 -4 -4 -4 -4 -4 -4 -3 -2 -1 -1
-3 -4 -4 -5 -5 -4 -5 -5 -5 -5 -5 -5 -5 -5 -5 -5 -5 -5 -4 -4 -3 -2
-3 -4 -4 -4 -4 -5 -5 -5 -5 -5 -5 -5 -6 -6 -5 -5 -5 -5 -5 -5 -5 -3
-4 -4 -5 -5 -5 -5 -5 -5 -6 -6 -6 -6 -6 -6 -6 -6 -6 -5 -5 -6 -5 -5
-4 -5 -5 -5 -5 -6 -6 -6 -6 -6 -6 -6 -6 -7 -7 -6 -6 -6 -5 -5 -5 -6
-4 -5 -5 -6 -6 -5 -6 -6 -6 -6 -6 -6 -6 -7 -7 -7 -7 -6 -6 -6 -6 -6
-4 -5 -6 -6 -6 -6 -6 -6 -6 -6 -6 -6 -6 -6 -6 -7 -7 -7 -6 -6 -6 -6
-4 -5 -6 -6 -6 -6 -6 -6 -7 -7 -6 -6 -6 -6 -6 -6 -6 -7 -7 -6 -6 -6
-4 -5 -5 -5 -6 -6 -6 -7 -7 -6 -6 -6 -6 -6 -6 -6 -7 -7 -6 -6 -6 -6
-4 -4 -5 -5 -6 -6 -7 -6 -6 -6 -6 -6 -7 -6 -6 -6 -6 -6 -6 -6 -6 -6
-4 -4 -4 -5 -6 -6 -6 -6 -6 -6 -6 -6 -6 -6 -6 -6 -6 -6 -6 -6 -6 -5
-3 -4 -4 -4 -5 -6 -6 -6 -6 -6 -6 -6 -6 -7 -7 -6 -6 -6 -6 -6 -5 -4
Height
1499 1495 1490 1486 1481 1477 1474 1471 1469 1467 1465 1463 1462 1461 1460 1460 1462 1465 1467 1470 1473 1478
1491 1487 1483 1478 1474 1470 1466 1463 1460 1457 1456 1455 1454 1453 1453 1452 1452 1453 1455 1459 1463 1469
1486 1481 1477 1472 1467 1463 1459 1455 1452 1450 1448 1446 1446 1445 1445 1445 1446 1446 1448 1451 1454 1461
1483 1478 1472 1467 1463 1459 1454 1451 1447 1444 1442 1440 1439 1438 1438 1438 1439 1441 1441 1443 1447 1452
1479 1473 1468 1464 1459 1454 1449 1444 1442 1439 1437 1434 1433 1432 1431 1431 1432 1434 1436 1438 1439 1444
1475 1470 1465 1459 1454 1450 1445 1441 1439 1435 1432 1430 1428 1426 1424 1424 1425 1427 1429 1431 1433 1437
1473 1467 1461 1456 1449 1446 1442 1439 1435 1431 1428 1425 1422 1420 1419 1418 1419 1421 1423 1426 1429 1432
1471 1465 1459 1453 1447 1443 1438 1434 1430 1426 1423 1421 1418 1415 1413 1413 1413 1415 1418 1421 1425 1428
1470 1463 1457 1451 1446 1441 1436 1431 1427 1423 1420 1416 1413 1409 1407 1407 1408 1409 1412 1416 1420 1424
1469 1462 1456 1449 1444 1439 1434 1429 1426 1421 1417 1413 1409 1405 1401 1400 1402 1405 1408 1412 1416 1420
1468 1462 1456 1448 1443 1438 1433 1429 1424 1420 1416 1412 1407 1403 1399 1398 1401 1404 1406 1410 1414 1417
1467 1461 1455 1448 1442 1437 1433 1429 1425 1420 1415 1412 1408 1404 1402 1401 1402 1404 1406 1409 1412 1414
1467 1461 1454 1449 1442 1437 1433 1429 1425 1421 1416 1412 1410 1407 1405 1405 1405 1406 1407 1408 1410 1412
1467 1461 1454 1449 1443 1438 1434 1430 1425 1422 1417 1414 1411 1409 1407 1406 1407 1407 1407 1408 1410 1411
Wind_Speed
20 21 20 19 19 21 21 21 20 21 22 22 23 23 25 23 26 31 35 33 29 29
17 20 20 22 22 25 24 25 26 24 22 21 22 21 22 27 25 25 27 31 34 35
19 23 23 22 21 22 22 23 23 22 22 22 23 23 23 24 22 27 29 25 28 29
19 22 21 21 20 20 21 21 21 19 18 18 19 22 23 25 24 19 20 26 29 27
21 24 22 20 19 21 25 18 18 19 19 20 19 21 23 21 24 24 21 20 24 31
22 22 21 20 20 18 19 16 16 16 17 18 17 19 21 21 24 21 21 18 22 24
20 22 22 21 20 17 15 15 16 16 16 16 17 17 16 18 20 22 21 20 20 20
21 21 19 19 20 15 16 17 16 16 15 16 17 18 17 17 18 19 21 20 19 18
20 21 20 18 17 15 17 17 16 15 13 16 18 17 16 15 18 19 21 20 19 19
19 21 21 22 20 19 18 16 16 14 15 15 15 13 13 15 17 15 19 20 19 20
19 22 22 23 20 19 17 15 14 14 15 14 12 10 8 4 9 11 13 14 17 18
19 21 24 25 21 18 15 14 13 14 14 11 10 8 6 3 6 8 10 12 14 16
19 23 23 23 19 19 13 14 13 13 13 8 9 8 5 7 5 7 8 10 13 13
19 23 22 20 18 18 14 14 14 12 13 10 6 8 5 4 4 3 5 11 10 15
Wind_Direction
310 305 298 293 286 284 277 272 271 271 273 273 268 262 250 246 246 243 240 238 231 228
309 307 304 298 294 292 286 284 280 272 261 265 261 256 258 255 239 227 226 231 233 233
333 324 312 312 308 300 297 301 289 285 276 274 268 260 254 252 254 246 231 221 221 227
332 331 322 315 318 310 306 298 296 293 283 277 273 263 258 252 249 244 243 237 229 224
324 332 328 322 314 317 315 300 302 297 290 280 276 275 258 255 250 244 240 234 234 226
331 334 332 325 318 322 323 323 311 301 295 291 285 276 267 261 249 238 237 230 231 226
343 341 336 333 332 325 330 322 317 308 301 297 294 283 272 261 252 238 231 226 231 228
346 345 346 343 339 334 328 322 320 310 302 306 302 293 275 264 243 236 226 228 224 225
353 350 346 346 346 334 331 338 337 330 314 310 307 303 285 258 242 236 225 223 222 218
353 354 352 348 348 349 340 338 336 335 335 334 323 320 298 248 233 223 218 222 218 212
348 348 352 351 348 348 349 348 344 346 342 343 345 353 4 162 198 203 202 200 204 213
344 341 344 355 351 352 349 347 346 345 348 355 2 22 45 112 171 175 180 190 205 209
344 346 351 352 353 356 347 345 348 352 355 13 23 27 65 91 122 161 188 209 185 194
346 350 353 356 359 346 350 349 356 358 10 27 24 20 61 94 125 140 151 169 177 176